Regional Weather Roundup
Issued by NWS Lake Charles, LA

Home | Current Version | Previous Version | Text Only | Print | Product List | Glossary On
Versions: 1 2 3 4 5 6 7 8 9 10 11 12 13 14 15 16 17 18 19 20 21 22 23 24 25 26 27 28
000
ASUS44 KLCH 282110
RWRLCH
REGIONAL WEATHER ROUNDUP
NATIONAL WEATHER SERVICE LAKE CHARLES LA
400 PM CDT TUE MAR 28 2017

Note: "fair" indicates few or no clouds below 12,000 feet with no
significant weather and/or obstructions to visibility.


ACROSS SOUTHEAST TEXAS

CITY           SKY/WX    TMP DP  RH WIND       PRES   REMARKS
BEAUMONT       MOSUNNY   81  67  62 SE22      29.85F
BEAUMONT CITY  FAIR     N/A N/A N/A SE15G24   29.86F
ORANGE         CLEAR     81  68  63 SE13G18   29.89F
JASPER           N/A     85  62  44 S13G23    29.87F
$$

ACROSS CENTRAL LOUISIANA

CITY           SKY/WX    TMP DP  RH WIND       PRES   REMARKS
LEESVILLE      MOSUNNY   84  57  40 SE16G25   29.86F
FULLERTON      FAIR      85  61  44 S8        29.84F
ALEXANDRIA INT LGT RAIN  83  64  52 S14G21    29.86F
ESLER FIELD    MOSUNNY   86  62  44 S10       29.88F
DERIDDER       FAIR      85  58  39 S13G20    29.89F
OAKDALE        PTCLDY    84  64  50 S9        29.89F
OPELOUSAS      FAIR      84  63  48 MISG      29.91S
$$

ACROSS SOUTHWEST AND SOUTH CENTRAL LOUISIANA

CITY           SKY/WX    TMP DP  RH WIND       PRES   REMARKS
SULPHUR        CLEAR     81  67  61 SE16G23   29.89F
LAKE CHARLES   SUNNY     82  65  56 SE20      29.89F
CHENNAULT INT  NOT AVBL
CAMERON PHI    PTCLDY    75  70  83 SE21      29.88F
DEQUINCY       FAIR      83  63  51 SE13G25   29.88F
JENNINGS       FAIR      82  65  55 S9G16     29.90F
LAFAYETTE      SUNNY     83  65  54 S9G22     29.92F
NEW IBERIA     MOSUNNY   81  66  60 S15       29.93F
ABBEVILLE      FAIR      81  72  74 SE16      29.93F
PATTERSON      PTSUNNY   80  68  66 S14       29.94F
SALT POINT       N/A     78  69  73 VRB5      29.93F
$$

SELECTED SITES ACROSS THE REGION

CITY           SKY/WX    TMP DP  RH WIND       PRES   REMARKS
HOUSTON BUSH   MOSUNNY   82  68  62 SE26      29.80F
HOUSTON HOBBY  MOSUNNY   82  67  60 SE16G28   29.80F
GALVESTON      CLOUDY    79  72  79 SE20      29.83F
COLLEGE STAT   MOSUNNY   84  62  47 SE24G33   29.73F
CONROE         SUNNY     83  62  49 SE20G32   29.79F
HUNTSVILLE     MOSUNNY   85  61  44 S13G26    29.78F
LUFKIN         LGT RAIN  83  62  49 SE16      29.80F
SHREVEPORT     MOSUNNY   85  67  54 SE12G17   29.82F
MONROE         MOSUNNY   83  65  54 VRB7      29.89F
NATCHEZ MS     NOT AVBL
BATON ROUGE    MOSUNNY   85  63  47 S13       29.91F
N.O. INTL ARPT MOSUNNY   81  64  56 S13       29.94F
SLIDELL        MOSUNNY   83  65  54 S12       29.94F
$$

MARINE REPORTS

STATION/POSITION TIME  SKY/WX   TEMP    WIND        PRES    VSBY
                                AIR SEA DIR/SP/G
                 (UTC)          (F)     (DEG/KT/KT) (MB)    (MI)
BUOY 30 S HIGH I NOT AVBL
SEA RIM ST PARK  2100            75     130/ 17/ 22 1011.6F
PORT ARTHUR      2048               74  140/ 11/ 18 1011.6F
SABINE PASS N    2048            74 76  130/ 19/ 26 1012.7F
TEXAS POINT      NOT AVBL
CALCASIEU PASS   2048            75 75  150/ 17/ 22   N/A
LK CHARLES BEACH 2042            81 71              1012.5F
MARSH ISLAND     2000            74                   N/A
FRESH WATER LOCK 2048            75 78  120/ 12/ 15 1013.4F
AMERADA PASS     2048            78 65  150/  6/ 14 1013.9F
$$




USA.gov is the U.S. government's official web portal to all federal, state and local government web resources and services.